Flag for U.S.A. Weather past 2 weeks in Topeka, Kansas, U.S.A.

Now
73 °F

Strong thunderstorms. Mostly cloudy.


Feels Like: 72 °F
Forecast: 73 / 91 °F
Wind: 15 mph from South

Location: Philip Billard Municipal Airport

Current Time: Sep 2, 2015 at 8:26:21 AM

Latest Report: Sep 2, 2015 at 7:53 AM


Visibility: 4 mi

Pressure: 29.99 "Hg

Humidity: 84%

Dew point: 68 °F

Location of TopekaLocation

Historic Weather in Topeka — Graph

°F

Topeka temperature yesterday

Maximum temperature yesterday: 91 °F (at 2:53 PM)
Minimum temperature yesterday: 71 °F (at 6:53 AM)
Average temperature yesterday: 80 °F

Past Weeks' High & Low Weather Summary

 TemperatureHumidityPressure
High91 °F (Sep 1, 2:53 PM)100% (Aug 25, 2:53 AM)30.21 "Hg (Aug 25, 2:53 AM)
Low52 °F (Aug 24, 4:53 AM)33% (Aug 20, 3:53 PM)29.65 "Hg (Aug 18, 3:53 PM)
Average72 °F74%29.98 "Hg
* Reported Aug 18 6:53 AM — Sep 2 6:53 AM, Topeka, Weather by CustomWeather, © 2015

Note: Actual official high and low records may vary slightly from our data, if they occured in-between our weather recording intervals... More about our weather records

Advertising

Topeka weather history for previous 24 hours

 ConditionsComfort  
Time TempWeatherWind HumidityBarometerVisibility
6:53 AM
Wed, Sep 2
75 °FOvercast.5 mph74%29.96 "Hg10 mi
5:53 AM74 °FClear.7 mph76%29.93 "Hg10 mi
4:53 AM75 °FClear.3 mph74%29.93 "Hg10 mi
3:53 AM75 °FClear.5 mph76%29.92 "Hg10 mi
2:53 AM76 °FClear.5 mph74%29.93 "Hg10 mi
1:53 AM76 °FClear.8 mph74%29.94 "Hg10 mi
12:53 AM78 °FClear.9 mph69%29.96 "Hg10 mi
11:53 PM
Tue, Sep 1
78 °FClear.7 mph69%29.96 "Hg10 mi
10:53 PM78 °FClear.12 mph69%29.96 "Hg10 mi
9:53 PM78 °FClear.10 mph69%29.96 "Hg10 mi
8:53 PM79 °FClear.9 mph65%29.95 "Hg10 mi
7:53 PM81 °FSunny.9 mph65%29.94 "Hg10 mi
6:53 PM85 °FSunny.13 mph55%29.93 "Hg10 mi
5:53 PM88 °FSunny.15 mph48%29.93 "Hg10 mi
3:53 PM91 °FSunny.14 mph42%29.93 "Hg10 mi
2:53 PM91 °FSunny.15 mph45%29.95 "Hg10 mi
1:53 PM90 °FSunny.13 mph45%29.95 "Hg10 mi
12:53 PM88 °FSunny.13 mph50%29.96 "Hg10 mi
11:53 AM86 °FSunny.13 mph53%29.98 "Hg10 mi
10:53 AM83 °FSunny.9 mph59%29.98 "Hg10 mi
9:53 AM80 °FSunny.8 mph64%29.99 "Hg10 mi
8:53 AM76 °FPassing clouds.6 mph77%29.98 "Hg10 mi
Weather by CustomWeather, © 2015

See weather overviewHow to use our weather pages